logo tempoitalia

Diretta Meteo Bombay-Santacruz, Indialunedì 31 agosto ore 11:30

Mappa
Sereno 31 °C Foschia 24 Ore: T.min 28 T.max 31
Ponente Ovest Km/h 29.6 Punto di rugiada: 25 °C Umidità: 70% Visibilità: 4 Km
Il sole sorge alle: 06:23 Il sole tramonta alle: 18:54
31 Agosto 2026 11:30 tempo osservato: Foschia Foschia 31 70 1010 vento: Nord O 29.6
31 Agosto 2026 11:00 tempo osservato: Foschia Foschia 31 70 1011 vento: Nord O 29.6
31 Agosto 2026 10:30 tempo osservato: Foschia Foschia 30 74 1010 vento: Nord O 25.9
31 Agosto 2026 10:00 tempo osservato: Foschia Foschia 30 74 1010 vento: Nord O 25.9
31 Agosto 2026 09:30 tempo osservato: Foschia Foschia 30 74 1010 vento: Nord O 25.9
31 Agosto 2026 09:00 tempo osservato: Foschia Foschia 30 74 1010 vento: Nord O 24
31 Agosto 2026 08:30 tempo osservato: Foschia Foschia 29 74 1010 vento: Nord O 22.2
31 Agosto 2026 08:00 tempo osservato: Foschia Foschia 29 79 1010 vento: Nord O 22.2
31 Agosto 2026 07:30 tempo osservato: Foschia Foschia 29 79 1010 vento: Nord O 16.7
31 Agosto 2026 07:00 tempo osservato: Foschia Foschia 28 83 1009 vento: Nord O 24
31 Agosto 2026 06:30 tempo osservato: Foschia Foschia 28 83 1009 vento: Nord O 20.3
31 Agosto 2026 06:00 tempo osservato: Foschia Foschia 28 78 1009 vento: Nord O 22.2
31 Agosto 2026 05:30 tempo osservato: Foschia Foschia 28 78 1009 vento: Nord O 20.3
31 Agosto 2026 05:00 tempo osservato: Foschia Foschia 28 83 1008 vento: Nord O 20.3
31 Agosto 2026 04:30 tempo osservato: Foschia Foschia 28 78 1008 vento: Nord O 18.5
31 Agosto 2026 04:00 tempo osservato: Foschia Foschia 28 83 1008 vento: Nord O 16.7
31 Agosto 2026 03:30 tempo osservato: Foschia Foschia 28 78 1008 vento: Nord O 18.5
31 Agosto 2026 03:00 tempo osservato: Foschia Foschia 28 78 1009 vento: Nord O 20.3
31 Agosto 2026 02:30 tempo osservato: Foschia Foschia 28 83 1009 vento: Nord O/SO 18.5
31 Agosto 2026 02:00 tempo osservato: Foschia Foschia 28 78 1009 vento: Nord O 18.5
31 Agosto 2026 01:30 tempo osservato: Foschia Foschia 28 78 1009 vento: Nord O 18.5
31 Agosto 2026 01:00 tempo osservato: Foschia Foschia 29 74 1010 vento: Nord O 18.5
31 Agosto 2026 00:30 tempo osservato: Foschia Foschia 28 78 1010 vento: Nord O 16.7
31 Agosto 2026 00:00 tempo osservato: Foschia Foschia 29 74 1010 vento: Nord O 18.5
30 Agosto 2026 23:30 tempo osservato: Foschia Foschia 29 79 1010 vento: Nord O 20.3
30 Agosto 2026 23:00 tempo osservato: Foschia Foschia 29 79 1010 vento: Nord O 24
30 Agosto 2026 22:30 tempo osservato: Foschia Foschia 29 79 1010 vento: Nord O 16.7
30 Agosto 2026 22:00 tempo osservato: Foschia Foschia 29 74 1010 vento: Nord O 22.2
30 Agosto 2026 21:30 tempo osservato: Foschia Foschia 29 79 1010 vento: Nord O 20.3
30 Agosto 2026 21:00 tempo osservato: Foschia Foschia 29 74 1010 vento: Nord O/NO 22.2
30 Agosto 2026 20:30 tempo osservato: Foschia Foschia 29 79 1010 vento: Nord O 22.2
30 Agosto 2026 20:00 tempo osservato: Foschia Foschia 29 74 1010 vento: Nord O 24
30 Agosto 2026 19:30 tempo osservato: Foschia Foschia 29 74 1009 vento: Nord O 20.3
30 Agosto 2026 19:00 tempo osservato: Foschia Foschia 29 74 1009 vento: Nord O 20.3
30 Agosto 2026 18:30 tempo osservato: Foschia Foschia 29 79 1009 vento: Nord O 24
30 Agosto 2026 18:00 tempo osservato: Foschia Foschia 29 79 1009 vento: Nord O 24
30 Agosto 2026 17:30 tempo osservato: Foschia Foschia 30 74 1009 vento: Nord O 25.9
30 Agosto 2026 17:00 tempo osservato: Foschia Foschia 30 74 1009 vento: Nord O 25.9
30 Agosto 2026 16:30 tempo osservato: Foschia Foschia 30 74 1009 vento: Nord O 27.8
30 Agosto 2026 16:00 tempo osservato: Foschia Foschia 30 74 1009 vento: Nord O 29.6
30 Agosto 2026 15:30 tempo osservato: Foschia Foschia 30 70 1009 vento: Nord O 29.6
30 Agosto 2026 15:00 tempo osservato: Foschia Foschia 31 70 1009 vento: Nord O 27.8
30 Agosto 2026 14:30 tempo osservato: Foschia Foschia 31 70 1009 vento: Nord O 25.9
30 Agosto 2026 14:00 tempo osservato: Foschia Foschia 31 66 1009 vento: Nord O 27.8
30 Agosto 2026 13:30 tempo osservato: Foschia Foschia 31 70 1010 vento: Nord O/SO 24
30 Agosto 2026 13:00 tempo osservato: Foschia Foschia 31 70 1010 vento: Nord O/SO 24
30 Agosto 2026 12:30 tempo osservato: Foschia Foschia 30 74 1010 vento: Nord O 25.9